Wetterdaten: Montag, 07.03.2016
Datum Zeit Auen-Temp. Temp gefhlt Luftfeuchte Luftdruck Regen Wind Richtung Richtung Sonnenschein Taupunkt Windben
07.03.2016 00:00 -4,9 C -5,5 C 82 % 1003,4 hPa 0,0 mm 0,0 km/h (0 Bft) NW 315 0 min -7,5 C 0,0 km/h (0 Bft)
07.03.2016 00:05 -4,8 C -5,4 C 82 % 1003,4 hPa 0,0 mm 1,8 km/h (1 Bft) S 180 0 min -7,4 C 5,1 km/h (1 Bft)
07.03.2016 00:10 -4,7 C -5,3 C 82 % 1003,2 hPa 0,0 mm 1,8 km/h (1 Bft) S-SO 157 0 min -7,3 C 10,1 km/h (2 Bft)
07.03.2016 00:15 -4,7 C -5,3 C 82 % 1003,2 hPa 0,0 mm 0,9 km/h (0 Bft) O-SO 112 0 min -7,3 C 0,0 km/h (0 Bft)
07.03.2016 00:20 -4,5 C -5,1 C 82 % 1003,2 hPa 0,0 mm 0,3 km/h (0 Bft) O-SO 112 0 min -7,1 C 0,0 km/h (0 Bft)
07.03.2016 00:25 -4,4 C -5,1 C 82 % 1003,2 hPa 0,0 mm 0,0 km/h (0 Bft) O-SO 112 0 min -7,0 C 0,0 km/h (0 Bft)
07.03.2016 00:30 -4,4 C -5,1 C 82 % 1003,4 hPa 0,0 mm 0,0 km/h (0 Bft) SO 135 0 min -7,0 C 0,0 km/h (0 Bft)
07.03.2016 00:35 -4,3 C -4,9 C 82 % 1003,4 hPa 0,0 mm 0,3 km/h (0 Bft) SO 135 0 min -6,9 C 0,0 km/h (0 Bft)
07.03.2016 00:40 -4,3 C -4,9 C 82 % 1003,4 hPa 0,0 mm 0,6 km/h (0 Bft) SO 135 0 min -6,9 C 0,0 km/h (0 Bft)
07.03.2016 00:45 -4,4 C -5,0 C 81 % 1003,4 hPa 0,0 mm 0,6 km/h (0 Bft) S 180 0 min -7,2 C 3,0 km/h (1 Bft)
07.03.2016 00:50 -4,4 C -4,9 C 81 % 1003,2 hPa 0,0 mm 0,9 km/h (0 Bft) SO 135 0 min -7,2 C 0,0 km/h (0 Bft)
07.03.2016 00:55 -4,5 C -5,0 C 81 % 1003,2 hPa 0,0 mm 0,9 km/h (0 Bft) S-SW 202 0 min -7,3 C 4,5 km/h (1 Bft)
07.03.2016 01:00 -4,4 C -4,9 C 81 % 1003,2 hPa 0,0 mm 1,2 km/h (1 Bft) S 180 0 min -7,2 C 5,7 km/h (1 Bft)
07.03.2016 01:05 -4,4 C -4,8 C 81 % 1003,2 hPa 0,0 mm 2,4 km/h (1 Bft) W-SW 247 0 min -7,2 C 3,3 km/h (1 Bft)
07.03.2016 01:10 -4,4 C -4,8 C 81 % 1003,4 hPa 0,0 mm 2,1 km/h (1 Bft) W 270 0 min -7,2 C 0,0 km/h (0 Bft)
07.03.2016 01:15 -4,4 C -4,8 C 81 % 1003,4 hPa 0,0 mm 1,2 km/h (1 Bft) S 180 0 min -7,2 C 6,0 km/h (2 Bft)
07.03.2016 01:20 -4,2 C -4,6 C 81 % 1003,4 hPa 0,0 mm 1,8 km/h (1 Bft) W-SW 247 0 min -7,0 C 11,9 km/h (2 Bft)
07.03.2016 01:25 -4,2 C -4,6 C 81 % 1003,4 hPa 0,0 mm 4,2 km/h (1 Bft) S-SO 157 0 min -7,0 C 0,0 km/h (0 Bft)
07.03.2016 01:30 -4,2 C -4,6 C 81 % 1003,3 hPa 0,0 mm 4,2 km/h (1 Bft) S-SO 157 0 min -7,0 C 12,2 km/h (2 Bft)
07.03.2016 01:35 -3,8 C -4,4 C 81 % 1003,3 hPa 0,0 mm 4,8 km/h (1 Bft) SW 225 0 min -6,6 C 13,4 km/h (3 Bft)
07.03.2016 01:40 -3,5 C -4,5 C 81 % 1003,3 hPa 0,0 mm 8,0 km/h (2 Bft) W-SW 247 0 min -6,3 C 14,9 km/h (3 Bft)
07.03.2016 01:45 -3,5 C -4,5 C 76 % 1003,3 hPa 0,0 mm 8,9 km/h (2 Bft) W-SW 247 0 min -7,1 C 14,3 km/h (3 Bft)
07.03.2016 01:50 -3,5 C -4,4 C 76 % 1003,2 hPa 0,0 mm 8,9 km/h (2 Bft) S 180 0 min -7,1 C 16,1 km/h (3 Bft)
07.03.2016 01:55 -3,5 C -4,4 C 76 % 1003,2 hPa 0,0 mm 9,5 km/h (2 Bft) SW 225 0 min -7,1 C 5,4 km/h (1 Bft)
07.03.2016 02:00 -3,5 C -4,4 C 79 % 1003,2 hPa 0,0 mm 7,7 km/h (2 Bft) SW 225 0 min -6,6 C 17,6 km/h (3 Bft)
07.03.2016 02:05 -3,7 C -4,5 C 78 % 1003,2 hPa 0,0 mm 6,6 km/h (2 Bft) SW 225 0 min -7,0 C 11,6 km/h (2 Bft)
07.03.2016 02:10 -3,7 C -4,5 C 78 % 1003,3 hPa 0,0 mm 6,6 km/h (2 Bft) S 180 0 min -7,0 C 4,8 km/h (1 Bft)
07.03.2016 02:15 -3,7 C -4,0 C 78 % 1003,3 hPa 0,0 mm 3,0 km/h (1 Bft) W 270 0 min -7,0 C 0,0 km/h (0 Bft)
07.03.2016 02:20 -3,6 C -4,0 C 78 % 1003,3 hPa 0,0 mm 3,6 km/h (1 Bft) SW 225 0 min -6,9 C 13,7 km/h (3 Bft)
07.03.2016 02:25 -3,5 C -4,0 C 78 % 1003,3 hPa 0,0 mm 4,8 km/h (1 Bft) S-SO 157 0 min -6,8 C 7,2 km/h (2 Bft)
07.03.2016 02:30 -3,5 C -4,0 C 78 % 1003,2 hPa 0,0 mm 5,1 km/h (1 Bft) S 180 0 min -6,8 C 8,0 km/h (2 Bft)
07.03.2016 02:35 -3,5 C -3,9 C 78 % 1003,2 hPa 0,0 mm 4,8 km/h (1 Bft) S-SW 202 0 min -6,8 C 6,6 km/h (2 Bft)
07.03.2016 02:39 -3,5 C -3,9 C 78 % 1003,2 hPa 0,0 mm 4,8 km/h (1 Bft) SW 225 0 min -6,8 C 5,4 km/h (1 Bft)
07.03.2016 02:40 -3,5 C -3,9 C 78 % 1003,2 hPa 0,0 mm 4,8 km/h (1 Bft) SW 225 0 min -6,8 C 5,4 km/h (1 Bft)
07.03.2016 02:45 -3,5 C -3,9 C 78 % 1003,2 hPa 0,0 mm 5,1 km/h (1 Bft) S 180 0 min -6,8 C 6,0 km/h (2 Bft)
07.03.2016 02:50 -3,3 C -3,9 C 78 % 1003,1 hPa 0,0 mm 6,3 km/h (2 Bft) S-SW 202 0 min -6,6 C 9,8 km/h (2 Bft)
07.03.2016 02:55 -3,1 C -3,9 C 78 % 1003,1 hPa 0,0 mm 7,2 km/h (2 Bft) W 270 0 min -6,4 C 6,3 km/h (2 Bft)
07.03.2016 03:00 -3,1 C -3,8 C 78 % 1003,1 hPa 0,0 mm 6,3 km/h (2 Bft) SW 225 0 min -6,4 C 9,2 km/h (2 Bft)
07.03.2016 03:05 -3,1 C -3,7 C 78 % 1003,1 hPa 0,0 mm 5,7 km/h (1 Bft) W 270 0 min -6,4 C 6,9 km/h (2 Bft)
07.03.2016 03:10 -3,1 C -3,6 C 78 % 1002,9 hPa 0,0 mm 5,1 km/h (1 Bft) W 270 0 min -6,4 C 3,9 km/h (1 Bft)
07.03.2016 03:15 -3,2 C -3,5 C 78 % 1002,9 hPa 0,0 mm 2,4 km/h (1 Bft) SW 225 0 min -6,5 C 7,2 km/h (2 Bft)
07.03.2016 03:20 -3,1 C -3,4 C 78 % 1002,9 hPa 0,0 mm 3,0 km/h (1 Bft) W-SW 247 0 min -6,4 C 8,6 km/h (2 Bft)
07.03.2016 03:25 -2,9 C -3,4 C 79 % 1002,9 hPa 0,0 mm 5,4 km/h (1 Bft) W 270 0 min -6,0 C 3,0 km/h (1 Bft)
07.03.2016 03:30 -2,9 C -3,2 C 79 % 1002,9 hPa 0,0 mm 4,2 km/h (1 Bft) W 270 0 min -6,0 C 0,0 km/h (0 Bft)
07.03.2016 03:35 -2,9 C -3,1 C 79 % 1002,9 hPa 0,0 mm 2,1 km/h (1 Bft) W-SW 247 0 min -6,0 C 4,2 km/h (1 Bft)
07.03.2016 03:40 -2,9 C -3,2 C 79 % 1002,9 hPa 0,0 mm 2,1 km/h (1 Bft) S 180 0 min -6,0 C 0,0 km/h (0 Bft)
07.03.2016 03:45 -3,0 C -3,2 C 79 % 1002,9 hPa 0,0 mm 1,8 km/h (1 Bft) S 180 0 min -6,1 C 0,0 km/h (0 Bft)
07.03.2016 03:50 -3,1 C -3,3 C 79 % 1003,0 hPa 0,0 mm 1,2 km/h (1 Bft) S-SW 202 0 min -6,2 C 0,0 km/h (0 Bft)
07.03.2016 03:55 -3,1 C -3,4 C 78 % 1003,0 hPa 0,0 mm 1,8 km/h (1 Bft) SW 225 0 min -6,4 C 5,7 km/h (1 Bft)
07.03.2016 04:00 -3,2 C -3,4 C 78 % 1003,0 hPa 0,0 mm 1,8 km/h (1 Bft) S 180 0 min -6,5 C 0,0 km/h (0 Bft)
07.03.2016 04:05 -3,3 C -3,5 C 78 % 1003,0 hPa 0,0 mm 0,6 km/h (0 Bft) S 180 0 min -6,6 C 0,0 km/h (0 Bft)
07.03.2016 04:10 -3,3 C -3,6 C 79 % 1002,8 hPa 0,0 mm 0,0 km/h (0 Bft) S 180 0 min -6,4 C 0,0 km/h (0 Bft)
07.03.2016 04:15 -3,3 C -3,6 C 79 % 1002,8 hPa 0,0 mm 0,0 km/h (0 Bft) W 270 0 min -6,4 C 3,3 km/h (1 Bft)
07.03.2016 04:20 -3,3 C -3,6 C 79 % 1002,8 hPa 0,0 mm 0,3 km/h (0 Bft) S 180 0 min -6,4 C 0,0 km/h (0 Bft)
07.03.2016 04:25 -3,3 C -3,6 C 79 % 1002,8 hPa 0,0 mm 0,3 km/h (0 Bft) O-SO 112 0 min -6,4 C 0,0 km/h (0 Bft)
07.03.2016 04:30 -3,3 C -3,7 C 79 % 1002,9 hPa 0,0 mm 0,0 km/h (0 Bft) SO 135 0 min -6,4 C 0,0 km/h (0 Bft)
07.03.2016 04:35 -3,3 C -3,7 C 80 % 1002,9 hPa 0,0 mm 0,0 km/h (0 Bft) SO 135 0 min -6,2 C 0,0 km/h (0 Bft)
07.03.2016 04:40 -3,3 C -3,7 C 80 % 1002,9 hPa 0,0 mm 0,0 km/h (0 Bft) O 90 0 min -6,2 C 0,0 km/h (0 Bft)
07.03.2016 04:45 -3,5 C -3,9 C 80 % 1002,9 hPa 0,0 mm 0,0 km/h (0 Bft) W 270 0 min -6,4 C 0,0 km/h (0 Bft)
07.03.2016 04:50 -3,4 C -3,8 C 80 % 1002,9 hPa 0,0 mm 0,0 km/h (0 Bft) O-NO 67 0 min -6,3 C 0,0 km/h (0 Bft)
07.03.2016 04:55 -3,3 C -3,8 C 81 % 1002,9 hPa 0,0 mm 0,0 km/h (0 Bft) O-SO 112 0 min -6,1 C 0,0 km/h (0 Bft)
07.03.2016 05:00 -3,4 C -3,8 C 81 % 1002,9 hPa 0,0 mm 0,0 km/h (0 Bft) O-SO 112 0 min -6,2 C 0,0 km/h (0 Bft)
07.03.2016 05:05 -3,3 C -3,7 C 81 % 1002,9 hPa 0,0 mm 0,0 km/h (0 Bft) S-SO 157 0 min -6,1 C 0,0 km/h (0 Bft)
07.03.2016 05:10 -3,3 C -3,7 C 81 % 1003,0 hPa 0,0 mm 0,9 km/h (0 Bft) SO 135 0 min -6,1 C 0,0 km/h (0 Bft)
07.03.2016 05:15 -3,2 C -3,6 C 82 % 1003,0 hPa 0,0 mm 0,9 km/h (0 Bft) SO 135 0 min -5,8 C 0,0 km/h (0 Bft)
07.03.2016 05:20 -3,2 C -3,6 C 82 % 1003,0 hPa 0,0 mm 0,3 km/h (0 Bft) SO 135 0 min -5,8 C 0,0 km/h (0 Bft)
07.03.2016 05:25 -3,2 C -3,6 C 82 % 1003,0 hPa 0,0 mm 0,0 km/h (0 Bft) SO 135 0 min -5,8 C 0,0 km/h (0 Bft)
07.03.2016 05:30 -3,3 C -3,7 C 82 % 1002,9 hPa 0,0 mm 0,0 km/h (0 Bft) NO 45 0 min -5,9 C 0,0 km/h (0 Bft)
07.03.2016 05:35 -3,2 C -3,6 C 82 % 1002,9 hPa 0,0 mm 0,0 km/h (0 Bft) S 180 0 min -5,8 C 0,0 km/h (0 Bft)
07.03.2016 05:40 -3,3 C -3,7 C 82 % 1002,9 hPa 0,0 mm 0,0 km/h (0 Bft) O-SO 112 0 min -5,9 C 0,0 km/h (0 Bft)
07.03.2016 05:41 -3,3 C -3,7 C 82 % 1002,9 hPa 0,0 mm 0,0 km/h (0 Bft) O-SO 112 0 min -5,9 C 0,0 km/h (0 Bft)
07.03.2016 05:45 -3,5 C -3,8 C 81 % 1002,9 hPa 0,0 mm 0,3 km/h (0 Bft) N-NW 337 0 min -6,3 C 4,2 km/h (1 Bft)
07.03.2016 05:50 -3,6 C -3,9 C 81 % 1002,9 hPa 0,0 mm 0,6 km/h (0 Bft) N-NO 22 0 min -6,4 C 0,0 km/h (0 Bft)
07.03.2016 05:55 -3,7 C -4,0 C 81 % 1002,9 hPa 0,0 mm 0,6 km/h (0 Bft) O-SO 112 0 min -6,5 C 0,0 km/h (0 Bft)
07.03.2016 06:00 -3,6 C -3,9 C 81 % 1002,9 hPa 0,0 mm 0,0 km/h (0 Bft) S 180 0 min -6,4 C 0,0 km/h (0 Bft)
07.03.2016 06:05 -3,5 C -3,9 C 81 % 1002,9 hPa 0,0 mm 0,0 km/h (0 Bft) O 90 0 min -6,3 C 0,0 km/h (0 Bft)
07.03.2016 06:10 -3,6 C -3,9 C 81 % 1002,8 hPa 0,0 mm 0,0 km/h (0 Bft) SO 135 0 min -6,4 C 0,0 km/h (0 Bft)
07.03.2016 06:15 -3,8 C -4,1 C 81 % 1002,8 hPa 0,0 mm 0,0 km/h (0 Bft) NW 315 0 min -6,6 C 0,0 km/h (0 Bft)
07.03.2016 06:20 -3,9 C -4,2 C 81 % 1002,8 hPa 0,0 mm 0,0 km/h (0 Bft) SO 135 0 min -6,7 C 0,0 km/h (0 Bft)
07.03.2016 06:25 -3,7 C -4,0 C 81 % 1002,8 hPa 0,0 mm 0,0 km/h (0 Bft) O-SO 112 0 min -6,5 C 0,0 km/h (0 Bft)
07.03.2016 06:30 -3,7 C -4,1 C 82 % 1002,9 hPa 0,0 mm 0,0 km/h (0 Bft) N-NO 22 0 min -6,3 C 0,0 km/h (0 Bft)
07.03.2016 06:35 -3,8 C -4,1 C 82 % 1002,9 hPa 0,0 mm 0,0 km/h (0 Bft) S-SO 157 0 min -6,4 C 0,0 km/h (0 Bft)
07.03.2016 06:40 -3,6 C -4,0 C 82 % 1002,9 hPa 0,0 mm 0,0 km/h (0 Bft) SO 135 0 min -6,2 C 0,0 km/h (0 Bft)
07.03.2016 06:45 -3,5 C -3,9 C 82 % 1002,9 hPa 0,0 mm 0,0 km/h (0 Bft) O 90 0 min -6,1 C 0,0 km/h (0 Bft)
07.03.2016 06:50 -3,6 C -4,0 C 82 % 1002,9 hPa 0,0 mm 0,0 km/h (0 Bft) O-NO 67 0 min -6,2 C 0,0 km/h (0 Bft)
07.03.2016 06:55 -3,8 C -4,1 C 82 % 1002,9 hPa 0,0 mm 0,0 km/h (0 Bft) N-NO 22 0 min -6,4 C 0,0 km/h (0 Bft)
07.03.2016 07:00 -3,7 C -4,0 C 82 % 1002,9 hPa 0,0 mm 0,0 km/h (0 Bft) O-SO 112 0 min -6,3 C 0,0 km/h (0 Bft)
07.03.2016 07:05 -3,7 C -4,0 C 82 % 1002,9 hPa 0,0 mm 0,0 km/h (0 Bft) N-NO 22 0 min -6,3 C 0,0 km/h (0 Bft)
07.03.2016 07:10 -3,7 C -4,0 C 82 % 1003,1 hPa 0,0 mm 0,0 km/h (0 Bft) O-NO 67 0 min -6,3 C 0,0 km/h (0 Bft)
07.03.2016 07:15 -3,6 C -3,9 C 82 % 1003,1 hPa 0,0 mm 0,0 km/h (0 Bft) O 90 0 min -6,2 C 0,0 km/h (0 Bft)
07.03.2016 07:20 -3,6 C -3,9 C 82 % 1003,1 hPa 0,0 mm 0,0 km/h (0 Bft) O-NO 67 0 min -6,2 C 0,0 km/h (0 Bft)
07.03.2016 07:25 -3,5 C -3,8 C 82 % 1003,1 hPa 0,0 mm 0,0 km/h (0 Bft) N-NO 22 0 min -6,1 C 0,0 km/h (0 Bft)
07.03.2016 07:30 -3,5 C -3,7 C 82 % 1003,2 hPa 0,0 mm 0,0 km/h (0 Bft) SO 135 0 min -6,1 C 0,0 km/h (0 Bft)
07.03.2016 07:35 -3,3 C -3,5 C 82 % 1003,2 hPa 0,0 mm 0,3 km/h (0 Bft) W-SW 247 0 min -5,9 C 6,3 km/h (2 Bft)
07.03.2016 07:40 -3,3 C -3,5 C 82 % 1003,2 hPa 0,0 mm 0,9 km/h (0 Bft) S-SO 157 0 min -5,9 C 0,0 km/h (0 Bft)
07.03.2016 07:45 -3,1 C -3,3 C 82 % 1003,2 hPa 0,0 mm 0,9 km/h (0 Bft) W-NW 292 0 min -5,7 C 0,0 km/h (0 Bft)
07.03.2016 07:50 -3,0 C -3,1 C 82 % 1003,4 hPa 0,0 mm 0,0 km/h (0 Bft) N-NW 337 0 min -5,6 C 0,0 km/h (0 Bft)
07.03.2016 07:55 -2,8 C -2,9 C 82 % 1003,4 hPa 0,0 mm 0,0 km/h (0 Bft) SO 135 0 min -5,4 C 0,0 km/h (0 Bft)
07.03.2016 08:00 -2,6 C -2,7 C 82 % 1003,4 hPa 0,0 mm 0,0 km/h (0 Bft) W-NW 292 0 min -5,2 C 0,0 km/h (0 Bft)
07.03.2016 08:05 -2,5 C -2,6 C 82 % 1003,4 hPa 0,0 mm 0,0 km/h (0 Bft) O-SO 112 0 min -5,1 C 0,0 km/h (0 Bft)
07.03.2016 08:10 -3,0 C -2,1 C 79 % 1003,6 hPa 0,0 mm 0,0 km/h (0 Bft) O-NO 67 0 min -6,1 C 0,0 km/h (0 Bft)
07.03.2016 08:15 -2,7 C -1,7 C 79 % 1003,6 hPa 0,0 mm 0,0 km/h (0 Bft) O 90 0 min -5,8 C 0,0 km/h (0 Bft)
07.03.2016 08:20 -2,5 C -1,2 C 79 % 1003,6 hPa 0,0 mm 0,0 km/h (0 Bft) NO 45 0 min -5,6 C 0,0 km/h (0 Bft)
07.03.2016 08:25 -2,1 C -0,4 C 79 % 1003,6 hPa 0,0 mm 0,0 km/h (0 Bft) NW 315 0 min -5,2 C 0,0 km/h (0 Bft)
07.03.2016 08:30 -1,8 C 0,2 C 79 % 1003,5 hPa 0,0 mm 0,0 km/h (0 Bft) N-NO 22 0 min -4,9 C 0,0 km/h (0 Bft)
07.03.2016 08:35 -1,5 C 0,9 C 79 % 1003,5 hPa 0,0 mm 0,6 km/h (0 Bft) SW 225 0 min -4,7 C 3,0 km/h (1 Bft)
07.03.2016 08:40 -1,3 C 1,4 C 79 % 1003,5 hPa 0,0 mm 0,9 km/h (0 Bft) SW 225 0 min -4,5 C 4,8 km/h (1 Bft)
07.03.2016 08:43 -1,3 C 1,4 C 79 % 1003,5 hPa 0,0 mm 0,9 km/h (0 Bft) SW 225 0 min -4,5 C 4,8 km/h (1 Bft)
07.03.2016 08:45 -1,3 C 2,5 C 79 % 1003,5 hPa 0,0 mm 2,7 km/h (1 Bft) W-SW 247 0 min -4,5 C 4,5 km/h (1 Bft)
07.03.2016 08:50 -1,2 C 3,2 C 78 % 1003,8 hPa 0,0 mm 3,6 km/h (1 Bft) SW 225 0 min -4,5 C 3,9 km/h (1 Bft)
07.03.2016 08:55 -0,9 C 4,5 C 78 % 1003,8 hPa 0,0 mm 1,8 km/h (1 Bft) SW 225 0 min -4,2 C 0,0 km/h (0 Bft)
07.03.2016 09:00 -0,5 C 5,5 C 78 % 1003,8 hPa 0,0 mm 0,9 km/h (0 Bft) NW 315 5 min -3,9 C 0,0 km/h (0 Bft)
07.03.2016 09:05 0,0 C 5,9 C 77 % 1003,8 hPa 0,0 mm 0,6 km/h (0 Bft) N-NW 337 5 min -3,5 C 0,0 km/h (0 Bft)
07.03.2016 09:10 0,3 C 6,3 C 77 % 1004,0 hPa 0,0 mm 0,6 km/h (0 Bft) NW 315 5 min -3,2 C 3,0 km/h (1 Bft)
07.03.2016 09:15 0,2 C 6,5 C 76 % 1004,0 hPa 0,0 mm 0,6 km/h (0 Bft) N-NW 337 5 min -3,5 C 0,0 km/h (0 Bft)
07.03.2016 09:20 0,4 C 6,3 C 76 % 1004,0 hPa 0,0 mm 2,4 km/h (1 Bft) NW 315 5 min -3,3 C 8,6 km/h (2 Bft)
07.03.2016 09:25 0,6 C 5,9 C 76 % 1004,0 hPa 0,0 mm 4,8 km/h (1 Bft) NW 315 5 min -3,1 C 3,9 km/h (1 Bft)
07.03.2016 09:30 0,8 C 5,8 C 75 % 1004,1 hPa 0,0 mm 5,7 km/h (1 Bft) W-NW 292 5 min -3,1 C 7,2 km/h (2 Bft)
07.03.2016 09:35 0,9 C 5,4 C 74 % 1004,1 hPa 0,0 mm 5,7 km/h (1 Bft) W 270 0 min -3,2 C 8,0 km/h (2 Bft)
07.03.2016 09:40 0,8 C 4,9 C 74 % 1004,1 hPa 0,0 mm 5,7 km/h (1 Bft) NW 315 0 min -3,3 C 3,3 km/h (1 Bft)
07.03.2016 09:45 0,8 C 4,5 C 73 % 1004,1 hPa 0,0 mm 4,8 km/h (1 Bft) W 270 0 min -3,5 C 6,3 km/h (2 Bft)
07.03.2016 09:50 0,7 C 4,3 C 73 % 1004,3 hPa 0,0 mm 4,5 km/h (1 Bft) NW 315 0 min -3,6 C 10,1 km/h (2 Bft)
07.03.2016 09:55 0,7 C 3,6 C 72 % 1004,3 hPa 0,0 mm 6,3 km/h (2 Bft) NW 315 0 min -3,8 C 7,2 km/h (2 Bft)
07.03.2016 10:00 0,6 C 2,9 C 72 % 1004,3 hPa 0,0 mm 7,5 km/h (2 Bft) SW 225 0 min -3,9 C 10,1 km/h (2 Bft)
07.03.2016 10:05 0,4 C 2,8 C 71 % 1004,3 hPa 0,0 mm 7,5 km/h (2 Bft) W-NW 292 0 min -4,2 C 10,1 km/h (2 Bft)
07.03.2016 10:10 0,4 C 2,7 C 71 % 1004,1 hPa 0,0 mm 7,2 km/h (2 Bft) W-SW 247 0 min -4,2 C 8,9 km/h (2 Bft)
07.03.2016 10:15 0,4 C 2,6 C 70 % 1004,1 hPa 0,0 mm 7,5 km/h (2 Bft) W-NW 292 0 min -4,4 C 3,6 km/h (1 Bft)
07.03.2016 10:20 0,4 C 2,7 C 70 % 1004,1 hPa 0,0 mm 7,2 km/h (2 Bft) NW 315 0 min -4,4 C 9,5 km/h (2 Bft)
07.03.2016 10:25 0,5 C 2,8 C 69 % 1004,1 hPa 0,0 mm 7,2 km/h (2 Bft) N 360 0 min -4,5 C 7,7 km/h (2 Bft)
07.03.2016 10:30 0,7 C 2,8 C 69 % 1004,1 hPa 0,0 mm 8,0 km/h (2 Bft) W 270 0 min -4,3 C 8,6 km/h (2 Bft)
07.03.2016 10:35 0,8 C 3,4 C 69 % 1004,1 hPa 0,0 mm 7,2 km/h (2 Bft) N-NW 337 0 min -4,2 C 8,6 km/h (2 Bft)
07.03.2016 10:40 1,0 C 3,7 C 69 % 1004,1 hPa 0,0 mm 6,9 km/h (2 Bft) NW 315 0 min -4,0 C 10,7 km/h (2 Bft)
07.03.2016 10:45 0,9 C 3,4 C 69 % 1004,1 hPa 0,0 mm 8,3 km/h (2 Bft) W-NW 292 0 min -4,1 C 14,9 km/h (3 Bft)
07.03.2016 10:50 0,9 C 3,7 C 68 % 1004,1 hPa 0,0 mm 8,0 km/h (2 Bft) W 270 0 min -4,3 C 8,9 km/h (2 Bft)
07.03.2016 10:55 1,3 C 4,2 C 68 % 1004,1 hPa 0,0 mm 7,5 km/h (2 Bft) NW 315 0 min -3,9 C 7,5 km/h (2 Bft)
07.03.2016 11:00 1,3 C 4,6 C 68 % 1004,1 hPa 0,0 mm 7,2 km/h (2 Bft) NW 315 0 min -3,9 C 9,2 km/h (2 Bft)
07.03.2016 11:05 1,0 C 4,3 C 67 % 1004,1 hPa 0,0 mm 6,9 km/h (2 Bft) N-NW 337 0 min -4,4 C 5,1 km/h (1 Bft)
07.03.2016 11:10 1,3 C 4,9 C 67 % 1004,0 hPa 0,0 mm 6,0 km/h (2 Bft) NW 315 0 min -4,1 C 3,3 km/h (1 Bft)
07.03.2016 11:15 1,4 C 5,6 C 67 % 1004,0 hPa 0,0 mm 4,2 km/h (1 Bft) NW 315 0 min -4,0 C 3,9 km/h (1 Bft)
07.03.2016 11:21 1,5 C 5,8 C 67 % 1004,0 hPa 0,0 mm 4,5 km/h (1 Bft) W 270 0 min -3,9 C 6,0 km/h (2 Bft)
07.03.2016 11:22 1,5 C 5,8 C 67 % 1004,0 hPa 0,0 mm 4,5 km/h (1 Bft) W 270 0 min -3,9 C 6,0 km/h (2 Bft)
07.03.2016 11:23 1,5 C 5,8 C 67 % 1004,0 hPa 0,0 mm 4,5 km/h (1 Bft) W 270 0 min -3,9 C 6,0 km/h (2 Bft)
07.03.2016 11:24 1,5 C 5,8 C 67 % 1004,0 hPa 0,0 mm 4,5 km/h (1 Bft) W 270 0 min -3,9 C 6,0 km/h (2 Bft)
07.03.2016 11:25 1,7 C 6,0 C 66 % 1004,0 hPa 0,0 mm 5,7 km/h (1 Bft) W-NW 292 0 min -4,0 C 6,3 km/h (2 Bft)
07.03.2016 11:27 1,7 C 6,0 C 66 % 1004,0 hPa 0,0 mm 5,7 km/h (1 Bft) W-NW 292 0 min -4,0 C 6,3 km/h (2 Bft)
07.03.2016 11:38 1,6 C 5,7 C 66 % 1004,0 hPa 0,0 mm 6,6 km/h (2 Bft) NW 315 0 min -4,1 C 7,7 km/h (2 Bft)
07.03.2016 11:39 1,6 C 5,7 C 66 % 1004,0 hPa 0,0 mm 6,6 km/h (2 Bft) NW 315 0 min -4,1 C 7,7 km/h (2 Bft)
07.03.2016 11:40 1,6 C 5,4 C 66 % 1004,0 hPa 0,0 mm 6,6 km/h (2 Bft) NW 315 0 min -4,1 C 7,2 km/h (2 Bft)
07.03.2016 11:41 1,6 C 5,4 C 66 % 1004,0 hPa 0,0 mm 6,6 km/h (2 Bft) NW 315 0 min -4,1 C 7,2 km/h (2 Bft)
07.03.2016 11:42 1,6 C 5,4 C 66 % 1004,0 hPa 0,0 mm 6,6 km/h (2 Bft) NW 315 0 min -4,1 C 7,2 km/h (2 Bft)
07.03.2016 11:43 1,6 C 5,4 C 66 % 1004,0 hPa 0,0 mm 6,6 km/h (2 Bft) NW 315 0 min -4,1 C 7,2 km/h (2 Bft)
07.03.2016 11:45 1,6 C 5,3 C 65 % 1004,0 hPa 0,0 mm 5,4 km/h (1 Bft) W 270 0 min -4,3 C 6,3 km/h (2 Bft)
07.03.2016 11:50 1,6 C 5,3 C 65 % 1004,1 hPa 0,0 mm 5,1 km/h (1 Bft) W-SW 247 0 min -4,3 C 0,0 km/h (0 Bft)
07.03.2016 11:55 1,4 C 5,9 C 65 % 1004,1 hPa 0,0 mm 4,5 km/h (1 Bft) NW 315 0 min -4,4 C 3,9 km/h (1 Bft)
07.03.2016 12:00 1,5 C 6,2 C 64 % 1004,1 hPa 0,0 mm 4,2 km/h (1 Bft) W-NW 292 0 min -4,6 C 4,2 km/h (1 Bft)
07.03.2016 12:05 1,8 C 6,7 C 64 % 1004,1 hPa 0,0 mm 3,6 km/h (1 Bft) N-NO 22 0 min -4,3 C 0,0 km/h (0 Bft)
07.03.2016 12:10 2,0 C 7,3 C 64 % 1003,9 hPa 0,0 mm 2,1 km/h (1 Bft) W-SW 247 0 min -4,1 C 4,2 km/h (1 Bft)
07.03.2016 12:15 2,2 C 8,0 C 62 % 1003,9 hPa 0,0 mm 1,2 km/h (1 Bft) W-SW 247 0 min -4,3 C 4,2 km/h (1 Bft)
07.03.2016 12:20 1,8 C 8,0 C 62 % 1003,9 hPa 0,0 mm 2,7 km/h (1 Bft) W 270 0 min -4,7 C 3,6 km/h (1 Bft)
07.03.2016 12:25 1,8 C 7,7 C 61 % 1003,9 hPa 0,0 mm 3,9 km/h (1 Bft) W 270 0 min -4,9 C 0,0 km/h (0 Bft)
07.03.2016 12:30 1,9 C 7,8 C 61 % 1004,1 hPa 0,0 mm 3,6 km/h (1 Bft) W 270 0 min -4,8 C 3,0 km/h (1 Bft)
07.03.2016 12:35 2,0 C 7,9 C 59 % 1004,1 hPa 0,0 mm 1,5 km/h (1 Bft) NW 315 0 min -5,2 C 0,0 km/h (0 Bft)
07.03.2016 12:40 1,9 C 8,0 C 59 % 1004,1 hPa 0,0 mm 2,1 km/h (1 Bft) W 270 0 min -5,2 C 8,3 km/h (2 Bft)
07.03.2016 12:45 1,9 C 7,8 C 59 % 1004,1 hPa 0,0 mm 3,9 km/h (1 Bft) NW 315 0 min -5,2 C 5,1 km/h (1 Bft)
07.03.2016 12:50 2,3 C 7,7 C 59 % 1003,8 hPa 0,0 mm 4,5 km/h (1 Bft) W 270 0 min -4,9 C 4,2 km/h (1 Bft)
07.03.2016 12:55 2,5 C 8,3 C 59 % 1003,8 hPa 0,0 mm 3,3 km/h (1 Bft) NW 315 0 min -4,7 C 6,9 km/h (2 Bft)
07.03.2016 13:00 2,6 C 8,3 C 59 % 1003,8 hPa 0,0 mm 3,6 km/h (1 Bft) W 270 0 min -4,6 C 4,8 km/h (1 Bft)
07.03.2016 13:05 2,5 C 8,8 C 58 % 1003,8 hPa 0,0 mm 4,2 km/h (1 Bft) N-NW 337 0 min -4,9 C 5,1 km/h (1 Bft)
07.03.2016 13:10 2,7 C 9,1 C 58 % 1003,6 hPa 0,0 mm 3,6 km/h (1 Bft) NW 315 0 min -4,7 C 3,3 km/h (1 Bft)
07.03.2016 13:15 2,9 C 9,1 C 59 % 1003,6 hPa 0,0 mm 3,6 km/h (1 Bft) N-NO 22 0 min -4,3 C 5,1 km/h (1 Bft)
07.03.2016 13:20 3,1 C 9,0 C 58 % 1003,6 hPa 0,0 mm 3,9 km/h (1 Bft) N-NW 337 0 min -4,3 C 3,3 km/h (1 Bft)
07.03.2016 13:25 2,9 C 9,0 C 58 % 1003,6 hPa 0,0 mm 3,6 km/h (1 Bft) N 360 0 min -4,5 C 0,0 km/h (0 Bft)
07.03.2016 13:30 3,3 C 9,2 C 58 % 1003,7 hPa 0,0 mm 2,7 km/h (1 Bft) NO 45 0 min -4,2 C 5,1 km/h (1 Bft)
07.03.2016 13:35 2,9 C 9,0 C 58 % 1003,7 hPa 0,0 mm 3,3 km/h (1 Bft) N-NW 337 5 min -4,5 C 5,1 km/h (1 Bft)
07.03.2016 13:40 3,1 C 8,5 C 57 % 1003,7 hPa 0,0 mm 4,8 km/h (1 Bft) N-NW 337 0 min -4,6 C 7,2 km/h (2 Bft)
07.03.2016 13:45 2,8 C 7,6 C 58 % 1003,7 hPa 0,0 mm 4,8 km/h (1 Bft) NW 315 0 min -4,6 C 6,3 km/h (2 Bft)
07.03.2016 13:50 2,7 C 7,2 C 58 % 1003,6 hPa 0,0 mm 4,5 km/h (1 Bft) S-SW 202 0 min -4,7 C 3,6 km/h (1 Bft)
07.03.2016 13:55 2,0 C 6,8 C 57 % 1003,6 hPa 0,0 mm 6,3 km/h (2 Bft) W-NW 292 0 min -5,6 C 5,1 km/h (1 Bft)
07.03.2016 14:00 1,9 C 6,4 C 58 % 1003,6 hPa 0,0 mm 6,3 km/h (2 Bft) W-SW 247 0 min -5,5 C 4,8 km/h (1 Bft)
07.03.2016 14:05 1,9 C 6,4 C 58 % 1003,6 hPa 0,0 mm 5,4 km/h (1 Bft) S 180 0 min -5,5 C 11,0 km/h (2 Bft)
07.03.2016 14:10 1,7 C 6,2 C 58 % 1003,7 hPa 0,0 mm 6,0 km/h (2 Bft) W-SW 247 0 min -5,7 C 8,0 km/h (2 Bft)
07.03.2016 14:15 1,6 C 6,0 C 58 % 1003,7 hPa 0,0 mm 7,2 km/h (2 Bft) W-NW 292 0 min -5,8 C 10,1 km/h (2 Bft)
07.03.2016 14:20 1,6 C 5,6 C 58 % 1003,7 hPa 0,0 mm 7,7 km/h (2 Bft) W-NW 292 0 min -5,8 C 5,1 km/h (1 Bft)
07.03.2016 14:25 1,6 C 5,7 C 58 % 1003,7 hPa 0,0 mm 7,2 km/h (2 Bft) NW 315 0 min -5,8 C 10,4 km/h (2 Bft)
07.03.2016 14:30 1,8 C 5,7 C 58 % 1003,8 hPa 0,0 mm 6,9 km/h (2 Bft) W 270 0 min -5,6 C 13,4 km/h (3 Bft)
07.03.2016 14:35 1,7 C 5,6 C 58 % 1003,8 hPa 0,0 mm 6,6 km/h (2 Bft) W 270 0 min -5,7 C 3,9 km/h (1 Bft)
07.03.2016 14:40 1,7 C 5,7 C 58 % 1003,8 hPa 0,0 mm 6,3 km/h (2 Bft) W 270 0 min -5,7 C 7,5 km/h (2 Bft)
07.03.2016 14:44 1,7 C 5,7 C 58 % 1003,8 hPa 0,0 mm 6,3 km/h (2 Bft) W 270 0 min -5,7 C 7,5 km/h (2 Bft)
07.03.2016 14:50 1,8 C 5,3 C 58 % 1003,6 hPa 0,0 mm 7,2 km/h (2 Bft) N 360 0 min -5,6 C 9,2 km/h (2 Bft)
07.03.2016 14:55 1,9 C 5,4 C 58 % 1003,6 hPa 0,0 mm 6,9 km/h (2 Bft) W-NW 292 0 min -5,5 C 8,6 km/h (2 Bft)
07.03.2016 15:00 1,9 C 5,8 C 58 % 1003,6 hPa 0,0 mm 6,3 km/h (2 Bft) NW 315 0 min -5,5 C 3,6 km/h (1 Bft)
07.03.2016 15:05 2,3 C 6,5 C 58 % 1003,6 hPa 0,0 mm 6,0 km/h (2 Bft) W-SW 247 0 min -5,1 C 3,9 km/h (1 Bft)
07.03.2016 15:10 2,6 C 7,1 C 58 % 1003,4 hPa 0,0 mm 4,8 km/h (1 Bft) W-SW 247 0 min -4,8 C 4,8 km/h (1 Bft)
07.03.2016 15:15 2,5 C 7,8 C 58 % 1003,4 hPa 0,0 mm 3,6 km/h (1 Bft) W 270 5 min -4,9 C 9,8 km/h (2 Bft)
07.03.2016 15:20 2,5 C 7,4 C 58 % 1003,4 hPa 0,0 mm 4,8 km/h (1 Bft) NW 315 0 min -4,9 C 3,6 km/h (1 Bft)
07.03.2016 15:25 2,4 C 7,2 C 57 % 1003,4 hPa 0,0 mm 4,8 km/h (1 Bft) W-SW 247 0 min -5,2 C 3,6 km/h (1 Bft)
07.03.2016 15:30 2,2 C 7,4 C 56 % 1003,4 hPa 0,0 mm 4,5 km/h (1 Bft) S 180 0 min -5,6 C 5,4 km/h (1 Bft)
07.03.2016 15:35 1,9 C 7,3 C 56 % 1003,4 hPa 0,0 mm 4,2 km/h (1 Bft) SW 225 0 min -5,9 C 5,4 km/h (1 Bft)
07.03.2016 15:40 1,8 C 7,1 C 56 % 1003,4 hPa 0,0 mm 3,0 km/h (1 Bft) W 270 0 min -6,0 C 0,0 km/h (0 Bft)
07.03.2016 15:45 1,5 C 7,2 C 56 % 1003,4 hPa 0,0 mm 1,8 km/h (1 Bft) W-SW 247 5 min -6,3 C 6,6 km/h (2 Bft)
07.03.2016 15:50 1,5 C 7,3 C 57 % 1003,2 hPa 0,0 mm 1,5 km/h (1 Bft) SW 225 5 min -6,1 C 3,6 km/h (1 Bft)
07.03.2016 15:55 1,3 C 7,3 C 57 % 1003,2 hPa 0,0 mm 3,0 km/h (1 Bft) W-SW 247 5 min -6,3 C 4,8 km/h (1 Bft)
07.03.2016 16:00 1,3 C 7,3 C 57 % 1003,2 hPa 0,0 mm 2,7 km/h (1 Bft) W-SW 247 5 min -6,3 C 3,6 km/h (1 Bft)
07.03.2016 16:06 1,0 C 6,7 C 57 % 1003,2 hPa 0,0 mm 2,1 km/h (1 Bft) NW 315 5 min -6,5 C 0,0 km/h (0 Bft)
07.03.2016 16:07 1,0 C 6,7 C 57 % 1003,2 hPa 0,0 mm 2,1 km/h (1 Bft) NW 315 1 min -6,5 C 0,0 km/h (0 Bft)
07.03.2016 16:08 1,0 C 6,7 C 57 % 1003,2 hPa 0,0 mm 2,1 km/h (1 Bft) NW 315 1 min -6,5 C 0,0 km/h (0 Bft)
07.03.2016 16:09 1,0 C 6,7 C 57 % 1003,2 hPa 0,0 mm 2,1 km/h (1 Bft) NW 315 1 min -6,5 C 0,0 km/h (0 Bft)
07.03.2016 16:10 1,0 C 6,3 C 57 % 1003,2 hPa 0,0 mm 3,3 km/h (1 Bft) SW 225 1 min -6,5 C 9,2 km/h (2 Bft)
07.03.2016 16:12 1,0 C 6,3 C 57 % 1003,2 hPa 0,0 mm 3,3 km/h (1 Bft) SW 225 2 min -6,5 C 9,2 km/h (2 Bft)
07.03.2016 16:23 0,9 C 5,5 C 57 % 1003,2 hPa 0,0 mm 4,8 km/h (1 Bft) SW 225 5 min -6,6 C 4,5 km/h (1 Bft)
07.03.2016 16:24 0,9 C 5,5 C 57 % 1003,2 hPa 0,0 mm 4,8 km/h (1 Bft) SW 225 1 min -6,6 C 4,5 km/h (1 Bft)
07.03.2016 16:25 0,9 C 5,2 C 57 % 1003,2 hPa 0,0 mm 3,9 km/h (1 Bft) SW 225 1 min -6,6 C 5,4 km/h (1 Bft)
07.03.2016 16:26 0,9 C 5,2 C 57 % 1003,2 hPa 0,0 mm 3,9 km/h (1 Bft) SW 225 1 min -6,6 C 5,4 km/h (1 Bft)
07.03.2016 16:27 0,9 C 5,2 C 57 % 1003,2 hPa 0,0 mm 3,9 km/h (1 Bft) SW 225 1 min -6,6 C 5,4 km/h (1 Bft)
07.03.2016 16:29 0,9 C 5,2 C 57 % 1003,2 hPa 0,0 mm 3,9 km/h (1 Bft) SW 225 2 min -6,6 C 5,4 km/h (1 Bft)
07.03.2016 16:40 0,6 C 2,9 C 57 % 1003,0 hPa 0,0 mm 0,0 km/h (0 Bft) N-NO 22 0 min -6,9 C 0,0 km/h (0 Bft)
07.03.2016 16:41 0,6 C 2,9 C 57 % 1003,0 hPa 0,0 mm 0,0 km/h (0 Bft) N-NO 22 0 min -6,9 C 0,0 km/h (0 Bft)
07.03.2016 16:42 0,6 C 2,9 C 57 % 1003,0 hPa 0,0 mm 0,0 km/h (0 Bft) N-NO 22 0 min -6,9 C 0,0 km/h (0 Bft)
07.03.2016 16:43 0,6 C 2,9 C 57 % 1003,0 hPa 0,0 mm 0,0 km/h (0 Bft) N-NO 22 0 min -6,9 C 0,0 km/h (0 Bft)
07.03.2016 16:44 0,6 C 2,9 C 57 % 1003,0 hPa 0,0 mm 0,0 km/h (0 Bft) N-NO 22 0 min -6,9 C 0,0 km/h (0 Bft)
07.03.2016 16:46 0,6 C 2,5 C 57 % 1003,0 hPa 0,0 mm 0,0 km/h (0 Bft) NO 45 0 min -6,9 C 0,0 km/h (0 Bft)
07.03.2016 16:57 0,6 C 1,9 C 57 % 1003,2 hPa 0,0 mm 0,0 km/h (0 Bft) S-SW 202 0 min -6,9 C 0,0 km/h (0 Bft)
07.03.2016 16:58 0,6 C 1,9 C 57 % 1003,2 hPa 0,0 mm 0,0 km/h (0 Bft) S-SW 202 0 min -6,9 C 0,0 km/h (0 Bft)
07.03.2016 16:59 0,6 C 1,9 C 57 % 1003,2 hPa 0,0 mm 0,0 km/h (0 Bft) S-SW 202 0 min -6,9 C 0,0 km/h (0 Bft)
07.03.2016 17:00 0,6 C 1,7 C 57 % 1003,2 hPa 0,0 mm 0,0 km/h (0 Bft) W 270 0 min -6,9 C 0,0 km/h (0 Bft)
07.03.2016 17:01 0,6 C 1,7 C 57 % 1003,2 hPa 0,0 mm 0,0 km/h (0 Bft) W 270 0 min -6,9 C 0,0 km/h (0 Bft)
07.03.2016 17:03 0,6 C 1,7 C 57 % 1003,2 hPa 0,0 mm 0,0 km/h (0 Bft) W 270 0 min -6,9 C 0,0 km/h (0 Bft)
07.03.2016 17:14 0,6 C 1,0 C 57 % 1003,2 hPa 0,0 mm 0,0 km/h (0 Bft) S-SW 202 0 min -6,9 C 0,0 km/h (0 Bft)
07.03.2016 17:15 0,5 C 0,6 C 57 % 1003,2 hPa 0,0 mm 0,0 km/h (0 Bft) S-SW 202 0 min -7,0 C 0,0 km/h (0 Bft)
07.03.2016 17:16 0,5 C 0,6 C 57 % 1003,2 hPa 0,0 mm 0,0 km/h (0 Bft) S-SW 202 0 min -7,0 C 0,0 km/h (0 Bft)
07.03.2016 17:17 0,5 C 0,6 C 57 % 1003,2 hPa 0,0 mm 0,0 km/h (0 Bft) S-SW 202 0 min -7,0 C 0,0 km/h (0 Bft)
07.03.2016 17:18 0,5 C 0,6 C 57 % 1003,2 hPa 0,0 mm 0,0 km/h (0 Bft) S-SW 202 0 min -7,0 C 0,0 km/h (0 Bft)
07.03.2016 17:19 0,0 C 0,3 C 54 % 1003,2 hPa 0,0 mm 0,0 km/h (0 Bft) S-SW 202 0 min -8,2 C 0,0 km/h (0 Bft)
07.03.2016 17:24 0,0 C 0,0 C 56 % 1003,2 hPa 0,0 mm 0,0 km/h (0 Bft) S-SW 202 0 min -7,7 C 0,0 km/h (0 Bft)
07.03.2016 17:29 -0,2 C -0,3 C 58 % 1003,3 hPa 0,0 mm 0,0 km/h (0 Bft) S-SW 202 0 min -7,4 C 0,0 km/h (0 Bft)
07.03.2016 17:34 -0,4 C -0,6 C 59 % 1003,3 hPa 0,0 mm 0,0 km/h (0 Bft) S-SW 202 0 min -7,4 C 0,0 km/h (0 Bft)
07.03.2016 17:39 -0,5 C -0,7 C 59 % 1003,3 hPa 0,0 mm 0,0 km/h (0 Bft) S-SW 202 0 min -7,5 C 0,0 km/h (0 Bft)
07.03.2016 17:44 -0,7 C -1,0 C 60 % 1003,3 hPa 0,0 mm 0,0 km/h (0 Bft) S-SO 157 0 min -7,5 C 0,0 km/h (0 Bft)
07.03.2016 17:45 -0,7 C -1,0 C 60 % 1003,3 hPa 0,0 mm 0,0 km/h (0 Bft) S-SO 157 0 min -7,5 C 0,0 km/h (0 Bft)
07.03.2016 17:50 -0,9 C -1,2 C 61 % 1003,2 hPa 0,0 mm 0,0 km/h (0 Bft) S-SO 157 0 min -7,5 C 0,0 km/h (0 Bft)
07.03.2016 17:55 -1,0 C -1,3 C 62 % 1003,2 hPa 0,0 mm 0,0 km/h (0 Bft) SO 135 0 min -7,3 C 0,0 km/h (0 Bft)
07.03.2016 18:00 -1,2 C -1,5 C 63 % 1003,2 hPa 0,0 mm 0,0 km/h (0 Bft) SO 135 0 min -7,3 C 0,0 km/h (0 Bft)
07.03.2016 18:05 -1,2 C -1,6 C 64 % 1003,2 hPa 0,0 mm 0,0 km/h (0 Bft) S-SO 157 0 min -7,1 C 0,0 km/h (0 Bft)
07.03.2016 18:10 -1,3 C -1,7 C 64 % 1003,4 hPa 0,0 mm 0,0 km/h (0 Bft) N 0 0 min -7,2 C 0,0 km/h (0 Bft)
07.03.2016 18:15 -1,4 C -1,9 C 64 % 1003,4 hPa 0,0 mm 0,0 km/h (0 Bft) S-SO 157 0 min -7,3 C 0,0 km/h (0 Bft)
07.03.2016 18:20 -1,6 C -2,1 C 65 % 1003,4 hPa 0,0 mm 0,0 km/h (0 Bft) S-SO 157 0 min -7,3 C 0,0 km/h (0 Bft)
07.03.2016 18:25 -1,8 C -2,3 C 66 % 1003,4 hPa 0,0 mm 0,0 km/h (0 Bft) O-SO 112 0 min -7,3 C 0,0 km/h (0 Bft)
07.03.2016 18:30 -1,8 C -2,4 C 66 % 1003,4 hPa 0,0 mm 0,0 km/h (0 Bft) O-SO 112 0 min -7,3 C 0,0 km/h (0 Bft)
07.03.2016 18:35 -2,0 C -2,6 C 65 % 1003,4 hPa 0,0 mm 0,0 km/h (0 Bft) S 180 0 min -7,7 C 0,0 km/h (0 Bft)
07.03.2016 18:40 -2,2 C -2,8 C 65 % 1003,4 hPa 0,0 mm 0,0 km/h (0 Bft) S 180 0 min -7,9 C 0,0 km/h (0 Bft)
07.03.2016 18:45 -2,1 C -2,8 C 66 % 1003,4 hPa 0,0 mm 0,0 km/h (0 Bft) S 180 0 min -7,6 C 0,0 km/h (0 Bft)
07.03.2016 18:50 -2,0 C -2,7 C 67 % 1003,4 hPa 0,0 mm 0,0 km/h (0 Bft) S 180 0 min -7,3 C 0,0 km/h (0 Bft)
07.03.2016 18:55 -2,0 C -2,7 C 67 % 1003,4 hPa 0,0 mm 0,0 km/h (0 Bft) SO 135 0 min -7,3 C 0,0 km/h (0 Bft)
07.03.2016 19:00 -2,0 C -2,7 C 67 % 1003,4 hPa 0,0 mm 0,0 km/h (0 Bft) SO 135 0 min -7,3 C 0,0 km/h (0 Bft)
07.03.2016 19:05 -2,4 C -3,0 C 66 % 1003,4 hPa 0,0 mm 0,0 km/h (0 Bft) SO 135 0 min -7,9 C 0,0 km/h (0 Bft)
07.03.2016 19:11 -2,8 C -3,3 C 65 % 1003,6 hPa 0,0 mm 0,0 km/h (0 Bft) N 0 0 min -8,4 C 0,0 km/h (0 Bft)
07.03.2016 19:15 -2,7 C -3,3 C 67 % 1003,6 hPa 0,0 mm 0,0 km/h (0 Bft) N 0 0 min -8,0 C 0,0 km/h (0 Bft)
07.03.2016 19:20 -2,9 C -3,4 C 66 % 1003,6 hPa 0,0 mm 0,0 km/h (0 Bft) O-SO 112 0 min -8,3 C 0,0 km/h (0 Bft)
07.03.2016 19:25 -3,2 C -3,7 C 67 % 1003,6 hPa 0,0 mm 0,0 km/h (0 Bft) SO 135 0 min -8,4 C 0,0 km/h (0 Bft)
07.03.2016 19:30 -3,2 C -3,7 C 67 % 1003,6 hPa 0,0 mm 0,0 km/h (0 Bft) SO 135 0 min -8,4 C 0,0 km/h (0 Bft)
07.03.2016 19:35 -2,6 C -3,3 C 69 % 1003,6 hPa 0,0 mm 0,0 km/h (0 Bft) SO 135 0 min -7,5 C 0,0 km/h (0 Bft)
07.03.2016 19:40 -2,5 C -3,2 C 69 % 1003,6 hPa 0,0 mm 0,0 km/h (0 Bft) SO 135 0 min -7,4 C 0,0 km/h (0 Bft)
07.03.2016 19:45 -2,4 C -3,1 C 69 % 1003,6 hPa 0,0 mm 0,0 km/h (0 Bft) O 90 0 min -7,3 C 0,0 km/h (0 Bft)
07.03.2016 19:50 -2,4 C -3,2 C 69 % 1003,7 hPa 0,0 mm 0,0 km/h (0 Bft) O-SO 112 0 min -7,3 C 0,0 km/h (0 Bft)
07.03.2016 19:55 -2,4 C -3,1 C 69 % 1003,7 hPa 0,0 mm 0,0 km/h (0 Bft) O-NO 67 0 min -7,3 C 0,0 km/h (0 Bft)
07.03.2016 20:00 -2,4 C -3,1 C 69 % 1003,7 hPa 0,0 mm 0,0 km/h (0 Bft) O-NO 67 0 min -7,3 C 0,0 km/h (0 Bft)
07.03.2016 20:05 -2,5 C -3,2 C 69 % 1003,7 hPa 0,0 mm 0,0 km/h (0 Bft) O-NO 67 0 min -7,4 C 0,0 km/h (0 Bft)
07.03.2016 20:11 -2,7 C -3,4 C 69 % 1003,8 hPa 0,0 mm 0,0 km/h (0 Bft) N 0 0 min -7,6 C 0,0 km/h (0 Bft)
07.03.2016 20:15 -3,0 C -3,6 C 69 % 1003,8 hPa 0,0 mm 0,0 km/h (0 Bft) N 0 0 min -7,9 C 0,0 km/h (0 Bft)
07.03.2016 20:20 -3,2 C -3,7 C 69 % 1003,8 hPa 0,0 mm 0,0 km/h (0 Bft) O-NO 67 0 min -8,1 C 0,0 km/h (0 Bft)
07.03.2016 20:25 -3,4 C -3,9 C 69 % 1003,8 hPa 0,0 mm 0,0 km/h (0 Bft) O 90 0 min -8,2 C 0,0 km/h (0 Bft)
07.03.2016 20:30 -3,5 C -3,9 C 69 % 1003,9 hPa 0,0 mm 0,0 km/h (0 Bft) N 360 0 min -8,3 C 0,0 km/h (0 Bft)
07.03.2016 20:35 -3,6 C -4,0 C 69 % 1003,9 hPa 0,0 mm 0,0 km/h (0 Bft) N-NO 22 0 min -8,4 C 0,0 km/h (0 Bft)
07.03.2016 20:40 -3,3 C -3,8 C 71 % 1003,9 hPa 0,0 mm 0,0 km/h (0 Bft) O-NO 67 0 min -7,8 C 0,0 km/h (0 Bft)
07.03.2016 20:44 -3,4 C -3,9 C 71 % 1003,9 hPa 0,0 mm 0,0 km/h (0 Bft) O-SO 112 0 min -7,9 C 0,0 km/h (0 Bft)
07.03.2016 20:46 -3,4 C -3,9 C 71 % 1003,9 hPa 0,0 mm 0,0 km/h (0 Bft) O-SO 112 0 min -7,9 C 0,0 km/h (0 Bft)
07.03.2016 20:50 -3,3 C -3,8 C 71 % 1004,1 hPa 0,0 mm 0,0 km/h (0 Bft) O-NO 67 0 min -7,8 C 0,0 km/h (0 Bft)
07.03.2016 20:55 -3,5 C -3,9 C 71 % 1004,1 hPa 0,0 mm 0,0 km/h (0 Bft) NO 45 0 min -8,0 C 0,0 km/h (0 Bft)
07.03.2016 21:00 -3,6 C -4,0 C 71 % 1004,1 hPa 0,0 mm 0,0 km/h (0 Bft) O-NO 67 0 min -8,1 C 0,0 km/h (0 Bft)
07.03.2016 21:05 -3,7 C -4,1 C 72 % 1004,1 hPa 0,0 mm 0,0 km/h (0 Bft) NW 315 0 min -8,0 C 0,0 km/h (0 Bft)
07.03.2016 21:10 -3,7 C -4,1 C 72 % 1004,0 hPa 0,0 mm 0,0 km/h (0 Bft) N-NW 337 0 min -8,0 C 0,0 km/h (0 Bft)
07.03.2016 21:15 -3,8 C -4,1 C 72 % 1004,0 hPa 0,0 mm 0,0 km/h (0 Bft) NW 315 0 min -8,1 C 0,0 km/h (0 Bft)
07.03.2016 21:20 -3,8 C -4,1 C 72 % 1004,0 hPa 0,0 mm 0,0 km/h (0 Bft) O 90 0 min -8,1 C 0,0 km/h (0 Bft)
07.03.2016 21:25 -3,2 C -3,7 C 74 % 1004,0 hPa 0,0 mm 0,0 km/h (0 Bft) O 90 0 min -7,2 C 0,0 km/h (0 Bft)
07.03.2016 21:30 -3,4 C -3,8 C 74 % 1004,1 hPa 0,0 mm 0,0 km/h (0 Bft) O 90 0 min -7,4 C 0,0 km/h (0 Bft)
07.03.2016 21:35 -3,6 C -4,0 C 74 % 1004,1 hPa 0,0 mm 0,0 km/h (0 Bft) W-SW 247 0 min -7,5 C 0,0 km/h (0 Bft)
07.03.2016 21:40 -3,4 C -3,9 C 74 % 1004,1 hPa 0,0 mm 0,0 km/h (0 Bft) O-SO 112 0 min -7,4 C 0,0 km/h (0 Bft)
07.03.2016 21:45 -3,5 C -3,9 C 74 % 1004,1 hPa 0,0 mm 0,0 km/h (0 Bft) NO 45 0 min -7,4 C 0,0 km/h (0 Bft)
07.03.2016 21:50 -3,8 C -4,1 C 74 % 1004,2 hPa 0,0 mm 0,0 km/h (0 Bft) N-NO 22 0 min -7,7 C 0,0 km/h (0 Bft)
07.03.2016 21:55 -4,1 C -4,4 C 74 % 1004,2 hPa 0,0 mm 0,0 km/h (0 Bft) N-NO 22 0 min -8,0 C 0,0 km/h (0 Bft)
07.03.2016 22:00 -4,2 C -4,5 C 74 % 1004,2 hPa 0,0 mm 0,0 km/h (0 Bft) O-SO 112 0 min -8,1 C 0,0 km/h (0 Bft)
07.03.2016 22:05 -4,2 C -4,5 C 74 % 1004,2 hPa 0,0 mm 0,0 km/h (0 Bft) W-SW 247 0 min -8,1 C 0,0 km/h (0 Bft)
07.03.2016 22:10 -3,9 C -4,3 C 75 % 1004,5 hPa 0,0 mm 0,0 km/h (0 Bft) O 90 0 min -7,7 C 0,0 km/h (0 Bft)
07.03.2016 22:15 -4,0 C -4,4 C 75 % 1004,5 hPa 0,0 mm 0,0 km/h (0 Bft) O-NO 67 0 min -7,8 C 0,0 km/h (0 Bft)
07.03.2016 22:20 -4,1 C -4,4 C 75 % 1004,5 hPa 0,0 mm 0,0 km/h (0 Bft) O-NO 67 0 min -7,9 C 0,0 km/h (0 Bft)
07.03.2016 22:25 -4,3 C -4,6 C 75 % 1004,5 hPa 0,0 mm 0,0 km/h (0 Bft) O-NO 67 0 min -8,0 C 0,0 km/h (0 Bft)
07.03.2016 22:30 -4,4 C -4,7 C 75 % 1004,7 hPa 0,0 mm 0,0 km/h (0 Bft) O-NO 67 0 min -8,1 C 0,0 km/h (0 Bft)
07.03.2016 22:35 -4,2 C -4,5 C 75 % 1004,7 hPa 0,0 mm 0,0 km/h (0 Bft) O-NO 67 0 min -8,0 C 0,0 km/h (0 Bft)
07.03.2016 22:40 -4,2 C -4,5 C 76 % 1004,7 hPa 0,0 mm 0,0 km/h (0 Bft) O-NO 67 0 min -7,8 C 0,0 km/h (0 Bft)
07.03.2016 22:45 -4,2 C -4,6 C 76 % 1004,7 hPa 0,0 mm 0,0 km/h (0 Bft) O-NO 67 0 min -7,8 C 0,0 km/h (0 Bft)
07.03.2016 22:50 -3,9 C -4,4 C 76 % 1004,8 hPa 0,0 mm 0,0 km/h (0 Bft) O-NO 67 0 min -7,5 C 0,0 km/h (0 Bft)
07.03.2016 22:55 -3,6 C -4,2 C 77 % 1004,8 hPa 0,0 mm 0,0 km/h (0 Bft) O-SO 112 0 min -7,0 C 0,0 km/h (0 Bft)
07.03.2016 23:00 -3,6 C -4,2 C 77 % 1004,8 hPa 0,0 mm 0,0 km/h (0 Bft) O 90 0 min -7,0 C 0,0 km/h (0 Bft)
07.03.2016 23:05 -4,0 C -4,4 C 77 % 1004,8 hPa 0,0 mm 0,0 km/h (0 Bft) O 90 0 min -7,4 C 0,0 km/h (0 Bft)
07.03.2016 23:10 -3,9 C -4,4 C 77 % 1004,8 hPa 0,0 mm 0,0 km/h (0 Bft) O 90 0 min -7,3 C 0,0 km/h (0 Bft)
07.03.2016 23:15 -3,9 C -4,4 C 77 % 1004,8 hPa 0,0 mm 0,0 km/h (0 Bft) O 90 0 min -7,3 C 0,0 km/h (0 Bft)
07.03.2016 23:20 -3,9 C -4,4 C 77 % 1004,8 hPa 0,0 mm 0,0 km/h (0 Bft) O 90 0 min -7,3 C 0,0 km/h (0 Bft)
07.03.2016 23:25 -3,9 C -4,4 C 77 % 1004,8 hPa 0,0 mm 0,0 km/h (0 Bft) O-NO 67 0 min -7,3 C 0,0 km/h (0 Bft)
07.03.2016 23:30 -4,0 C -4,5 C 77 % 1004,7 hPa 0,0 mm 0,0 km/h (0 Bft) O-NO 67 0 min -7,4 C 0,0 km/h (0 Bft)
07.03.2016 23:35 -4,4 C -4,8 C 77 % 1004,7 hPa 0,0 mm 0,0 km/h (0 Bft) O-NO 67 0 min -7,8 C 0,0 km/h (0 Bft)
07.03.2016 23:40 -4,5 C -4,9 C 77 % 1004,7 hPa 0,0 mm 0,0 km/h (0 Bft) O-NO 67 0 min -7,9 C 0,0 km/h (0 Bft)
07.03.2016 23:45 -4,7 C -5,1 C 76 % 1004,7 hPa 0,0 mm 0,0 km/h (0 Bft) O-NO 67 0 min -8,3 C 0,0 km/h (0 Bft)
07.03.2016 23:47 -4,7 C -5,1 C 76 % 1004,7 hPa 0,0 mm 0,0 km/h (0 Bft) O-NO 67 0 min -8,3 C 0,0 km/h (0 Bft)
07.03.2016 23:50 -4,8 C -5,2 C 76 % 1004,9 hPa 0,0 mm 0,0 km/h (0 Bft) O-NO 67 0 min -8,4 C 0,0 km/h (0 Bft)
07.03.2016 23:55 -4,8 C -5,2 C 76 % 1004,9 hPa 0,0 mm 0,0 km/h (0 Bft) O-NO 67 0 min -8,4 C 0,0 km/h (0 Bft)
_ Min-Zeit 00:00 00:00 17:19 06:25 - 23:55 - - - 20:35 23:55
Minimum _ -4,9 C -5,5 C 54 % 1002,8 hPa - 0,0 km/h (0 Bft) - - - -8,4 C 0,0 km/h (0 Bft)
_ Max-Zeit 13:30 13:30 08:05 23:55 23:55 01:55 - - 16:23 09:30 02:00
Maximum _ 3,3 C 9,2 C 82 % 1004,9 hPa 0,0 mm 9,5 km/h
SW (2 Bft)
- - 5 min -3,1 C 17,6 km/h
SW (3 Bft)
Durchschnitt _ -1,6 C -0,3 C 71 % 1003,6 hPa #0,0 mm 2,2 km/h (1 Bft) NW - #1:27 h -6,2 C 2,8 km/h (1 Bft)